Location: Catstown
(52.4386°N, 7.2633°W)
Time: 23:15:13
(UTC+00:00)

Cosmos 1300 Rocket - Pass Details

Date: 18 September 2020
Orbit: 601 x 627 km, 82.5° (Epoch: 31 October)

Event Time Altitude Azimuth Distance (km) Brightness Sun altitude
Rises 19:54:38 0° 178° (S) 2,880 6.8 -12.6°
Reaches altitude 10° 19:56:51 10° 175° (S) 1,983 5.9 -12.9°
Maximum altitude 20:01:10 60° 96° (E) 720 3.6 -13.5°
Drops below altitude 10° 20:05:34 10° 17° (NNE) 2,012 6.2 -14.1°
Sets 20:07:50 0° 14° (NNE) 2,926 7.1 -14.4°
